Regional Weather Roundup
Issued by NWS

Home | Current Version | Previous Version | Text Only | Print | Product List | Glossary Off
Versions: 1 2 3 4 5 6 7 8 9 10 11 12 13 14 15 16 17 18 19 20 21 22 23 24 25 26 27 28 29 30 31 32 33 34 35 36 37 38 39 40 41 42 43 44 45 46 47 48 49 50

000
ASUS43 KOAX 281110
RWRNE

WEATHER ROUNDUP FOR NEBRASKA
NATIONAL WEATHER SERVICE OMAHA NE
600 AM CDT FRI APR 28 2017

NOTES: SATELLITE DATA IS BEING USED TO AUGMENT CLOUD COVER ABOVE
       12000 FEET.
       "FAIR" INDICATES FEW OR NO CLOUDS BELOW 12,000 FEET WITH NO
       SIGNIFICANT WEATHER AND/OR OBSTRUCTIONS TO VISIBILITY.

  * THESE STATIONS DO NOT REPORT WEATHER SUCH AS RAIN...SNOW OR FOG.

NEZ001>004-019>022-054>056-281200-
NEBRASKA PANHANDLE

CITY           SKY/WX    TMP DP  RH WIND       PRES   REMARKS
SCOTTSBLUFF    LGT SNOW  34  32  92 E10       29.63R FOG     WCI  26
ALLIANCE       LGT SNOW  33  32  96 E9        29.65R FOG     WCI  25
CHADRON        LGT RAIN  38  36  92 NE3       29.70R FOG
KIMBALL        CLOUDY    37  32  82 NW8       29.60R WCI  31
SIDNEY         CLOUDY    34  33  96 E9        29.62R WCI  27
$$

NEZ057>060-069>072-079>082-281200-
SOUTHWEST NEBRASKA

CITY           SKY/WX    TMP DP  RH WIND       PRES   REMARKS
NORTH PLATTE   RAIN      39  36  89 E12       29.67R WCI  32
IMPERIAL       LGT RAIN  40  38  93 E15       29.61R WCI  32
LEXINGTON      RAIN      43  40  90 E15       29.63F
MCCOOK         RAIN      43  43 100 NE13      29.59S FOG
OGALLALA       LGT SNOW  34  33  97 E6        29.65R WCI  29
$$

NEZ005>010-023>029-035>040-094-281200-
NORTH CENTRAL NEBRASKA

CITY           SKY/WX    TMP DP  RH WIND       PRES   REMARKS
VALENTINE      CLOUDY    40  29  64 E12       29.77R WCI  33
AINSWORTH      CLOUDY    37  32  82 E9        29.76S WCI  30
BROKEN BOW     RAIN      40  39  97 E14       29.68S WCI  32
O`NEILL        CLOUDY    35  32  86 E14       29.79R WCI  26
ORD            RAIN      40  35  83 E13       29.72R WCI  32
THEDFORD       LGT RAIN  37  35  95 NE16      29.72R WCI  27
$$

NEZ041-046>049-061>064-073>077-083>087-281200-
SOUTH CENTRAL NEBRASKA

CITY           SKY/WX    TMP DP  RH WIND       PRES   REMARKS
GRAND ISLAND   RAIN      42  42 100 E16G24    29.69R FOG
AURORA         LGT RAIN  43  42  95 E15       29.69R
HASTINGS       LGT RAIN  46  44  93 E15       29.65F FOG
HEBRON         RAIN      46  46  97 E10G17    29.63F
HOLDREGE       LGT RAIN  44  42  95 E18       29.61F
KEARNEY *      CLOUDY    45  39  81 E18       29.65F
YORK           LGT RAIN  45  43  93 E16       29.69F
$$

NEZ011>018-030>034-042>045-281200-
NORTHEAST NEBRASKA

CITY           SKY/WX    TMP DP  RH WIND       PRES   REMARKS
NORFOLK        CLOUDY    35  30  82 E17G25    29.78R WCI  25
ALBION         LGT RAIN  39  34  81 E13G21    29.75R WCI  32
BLAIR          DRIZZLE   40  34  76 NE13      29.78R WCI  33
FREMONT        DRIZZLE   41  34  75 NE9       29.78R
TEKAMAH        CLOUDY    39  30  70 NE14      29.81F WCI  31
WAYNE          CLOUDY    33  32  94 E9        29.81F WCI  26
$$

NEZ050>053-065>068-078-088>093-281200-
SOUTHEAST NEBRASKA

CITY           SKY/WX    TMP DP  RH WIND       PRES   REMARKS
LINCOLN        RAIN      44  41  89 E16       29.73F FOG
OMAHA EPPLEY   LGT RAIN  43  32  65 N8        29.79R
BEATRICE       LGT RAIN  48  46  95 E15       29.67F
FALLS CITY     LGT RAIN  49  47  93 E17       29.69F
NEBRASKA CITY  RAIN      44  39  84 NE9       29.75R
PLATTSMOUTH    LGT RAIN  43  37  78 NE9G17    29.76R
$$

NEZ044-045-051>053-067-281200-
OMAHA AREA

CITY           SKY/WX    TMP DP  RH WIND       PRES   REMARKS
OMAHA EPPLEY   LGT RAIN  43  32  65 N8        29.79R
BLAIR          DRIZZLE   40  34  76 NE13      29.78R WCI  33
FREMONT        DRIZZLE   41  34  75 NE9       29.78R
MILLARD        LGT RAIN  45  37  75 E3        29.78R
OFFUTT AFB     LGT RAIN  42  36  77 NE14      29.77R
PLATTSMOUTH    LGT RAIN  43  37  78 NE9G17    29.76R
WAHOO          LGT RAIN  42  36  80 E14       29.77R
$$




USA.gov is the U.S. government's official web portal to all federal, state and local government web resources and services.